Regional Weather Roundup
Issued by NWS

Home | Current Version | Previous Version | Graphics & Text | Print | Product List | Glossary Off
Versions: 1 2 3 4 5 6 7 8 9 10 11 12 13 14 15 16 17 18 19 20 21 22 23 24 25 26 27 28 29 30 31 32 33 34 35 36 37 38 39 40 41 42 43 44 45 46 47 48 49 50

000
ASUS43 KFSD 221410
RWRSD

WEATHER ROUNDUP FOR SOUTH DAKOTA
NATIONAL WEATHER SERVICE SIOUX FALLS SD
900 AM CDT TUE JUL 22 2014

NOTE: "FAIR" INDICATES FEW OR NO CLOUDS BELOW 12,000 FEET WITH NO
SIGNIFICANT WEATHER AND/OR OBSTRUCTIONS TO VISIBILITY.


SDZ001>005-009-010-012>017-221500-
NORTHWEST AND NORTH CENTRAL SOUTH DAKOTA

CITY           SKY/WX    TMP DP  RH WIND       PRES   REMARKS
BUFFALO          N/A     64  61  90 CALM      30.15R
FAITH            N/A     67  62  84 NE8       30.19R
MOBRIDGE       CLOUDY    66  63  90 N9        30.15R
$$

SDZ012>016-024>037-041>051-057-063-072>074-221500-
SOUTHWEST AND SOUTH CENTRAL SOUTH DAKOTA

CITY           SKY/WX    TMP DP  RH WIND       PRES   REMARKS
RAPID CTY ARPT SUNNY     71  65  81 NW6       30.22R
PIERRE         CLOUDY    67  63  87 NW7       30.14F
CUSTER         MOSUNNY   69  54  58 NE3       30.34R
ELLSWORTH AFB  SUNNY     71  64  77 N8        30.22R
PHILIP         MOSUNNY   70  64  81 NE8       30.15R
PINE RIDGE     MOSUNNY   68  63  84 N7        30.21R
WINNER         TSTM      67  64  90 N16       30.16R
$$

SDZ004>011-016>023-039-040-221500-
NORTHEAST SOUTH DAKOTA

CITY           SKY/WX    TMP DP  RH WIND       PRES   REMARKS
ABERDEEN       SUNNY     69  63  81 N15       30.12R
WATERTOWN      MOSUNNY   70  62  76 N23       30.08R
SISSETON         N/A     70  62  76 N17       30.08R
$$

SDZ017-020-022-023-036>040-048>070-221500-
SOUTHEAST SOUTH DAKOTA

CITY           SKY/WX    TMP DP  RH WIND       PRES   REMARKS
SIOUX FALLS    MOSUNNY   74  65  73 N13       30.03R
HURON          PTSUNNY   68  63  84 N14       30.08R
CHAMBERLAIN    CLOUDY    66  64  91 W6        30.15R
MITCHELL       PTSUNNY   72  66  81 N10G20    30.09R
YANKTON        PTSUNNY   72  64  78 NW13      30.05R
$$

ABBREVIATIONS USED IN REMARKS
   TC - TEMPERATURE IN CELSIUS
  WCI - WIND CHILL INDEX
   HX - HEAT INDEX
  VSB - VISIBILITY




USA.gov is the U.S. government's official web portal to all federal, state and local government web resources and services.